Location: Munkebjergskolens Observatorium
(55.3864°N, 10.3987°E)
Time: 03:20:46
(UTC+02:00)

KKS-1 - Pass Details

Date: 06 April 2023
Orbit: 633 x 644 km, 98.2° (Epoch: 31 May)

Event Time Altitude Azimuth Distance (km) Brightness Sun altitude
Rises 00:13:11 0° 15° (NNE) 2,946 ? -26.8°
Reaches altitude 10° 00:15:23 10° 16° (NNE) 2,033 ? -26.9°
Enters shadow 00:18:57 58° 16° (NNE) 748 ? -27.0°
